Location: Caltech
(34.1382°N, 118.1253°W)
Time: 17:07:44
(UTC-07:00)

ADEOS II - Visible Passes

Search period start: 01 April 2015 00:00
Search period end: 11 April 2015 00:00
Orbit: 800 x 803 km, 98.3° (Epoch: 31 March)

Date Brightness Start Highest point End Pass type
(mag) Time Alt. Az. Time Alt. Az. Time Alt. Az.
01 Apr 5.0 05:10:11 10° ENE 05:12:42 14° E 05:15:32 10° ESE visible
03 Apr 3.5 05:55:36 10° NNE 06:00:34 43° E 06:05:34 10° S visible
04 Apr 4.6 05:30:08 10° NE 05:34:14 23° E 05:38:27 10° SSE visible
05 Apr 5.1 05:05:45 10° ENE 05:07:45 12° E 05:10:05 10° ESE visible
07 Apr 3.7 05:50:47 10° NNE 05:55:39 39° E 06:00:33 10° SSE visible
08 Apr 4.7 05:25:25 10° NE 05:29:17 21° E 05:33:18 10° SE visible
09 Apr 5.3 05:01:30 10° ENE 05:02:46 11° E 05:04:25 10° ESE visible
